EN

Hourly Weather Yulara

Today, 7 March, Sunday

Time Temperature Precipitation Wind Pressure Humidity
00:00 +30°C° 0.3 mm 5 mps 713 mmHg 38%
01:00 +30°C° 0.2 mm 4 mps 713 mmHg 40%
02:00 +29°C° 0.2 mm 3 mps 712 mmHg 43%
03:00 +29°C° 0 mm 1 mps 712 mmHg 42%
04:00 +29°C° 0.1 mm 2 mps 712 mmHg 43%
05:00 +28°C° 0.1 mm 2 mps 712 mmHg 45%
06:00 +27°C° 0.1 mm 2 mps 712 mmHg 47%
07:00 +29°C° 0.1 mm 2 mps 713 mmHg 44%
08:00 +30°C° 0.1 mm 2 mps 713 mmHg 41%
09:00 +31°C° 0 mm 1 mps 714 mmHg 37%
10:00 +32°C° 0 mm 2 mps 713 mmHg 36%
11:00 +34°C° 0 mm 2 mps 713 mmHg 34%
12:00 +35°C° 0 mm 3 mps 712 mmHg 33%
13:00 +36°C° 0 mm 4 mps 712 mmHg 32%
14:00 +36°C° 0 mm 5 mps 712 mmHg 31%
15:00 +36°C° 0 mm 6 mps 711 mmHg 33%
16:00 +35°C° 0 mm 5 mps 711 mmHg 33%
17:00 +35°C° 0 mm 5 mps 711 mmHg 33%
18:00 +35°C° 0 mm 4 mps 711 mmHg 33%
19:00 +34°C° 0 mm 4 mps 712 mmHg 34%
20:00 +33°C° 0 mm 5 mps 713 mmHg 34%
21:00 +32°C° 0 mm 5 mps 713 mmHg 34%
22:00 +30°C° 0 mm 6 mps 713 mmHg 35%
23:00 +29°C° 0 mm 6 mps 713 mmHg 35%

Tomorrow, 8 March, Monday

Time Temperature Precipitation Wind Pressure Humidity
00:00 +28°C° 0 mm 7 mps 713 mmHg 36%
01:00 +27°C° 0 mm 7 mps 713 mmHg 38%
02:00 +27°C° 0 mm 6 mps 713 mmHg 40%
03:00 +26°C° 0 mm 5 mps 713 mmHg 42%
04:00 +25°C° 0 mm 5 mps 713 mmHg 44%
05:00 +25°C° 0 mm 5 mps 713 mmHg 47%
06:00 +23°C° 0 mm 5 mps 714 mmHg 50%
07:00 +25°C° 0 mm 5 mps 714 mmHg 47%
08:00 +26°C° 0 mm 6 mps 715 mmHg 44%
09:00 +28°C° 0 mm 6 mps 715 mmHg 41%
10:00 +29°C° 0 mm 5 mps 715 mmHg 37%
11:00 +32°C° 0 mm 4 mps 715 mmHg 33%
12:00 +33°C° 0 mm 3 mps 714 mmHg 29%
13:00 +34°C° 0 mm 3 mps 714 mmHg 27%
14:00 +35°C° 0 mm 3 mps 714 mmHg 24%
15:00 +36°C° 0 mm 3 mps 713 mmHg 22%
16:00 +36°C° 0 mm 4 mps 713 mmHg 21%
17:00 +35°C° 0 mm 5 mps 713 mmHg 21%
18:00 +35°C° 0 mm 6 mps 713 mmHg 20%
19:00 +34°C° 0 mm 6 mps 714 mmHg 23%
20:00 +32°C° 0 mm 7 mps 714 mmHg 25%
21:00 +31°C° 0 mm 8 mps 715 mmHg 28%
22:00 +29°C° 0 mm 8 mps 715 mmHg 30%
23:00 +28°C° 0 mm 7 mps 715 mmHg 33%

Day after tomorrow, 9 March, Tuesday

Time Temperature Precipitation Wind Pressure Humidity
00:00 +27°C° 0 mm 7 mps 715 mmHg 36%
01:00 +27°C° 0 mm 7 mps 715 mmHg 37%
02:00 +26°C° 0 mm 6 mps 715 mmHg 39%
03:00 +24°C° 0 mm 6 mps 715 mmHg 40%
04:00 +25°C° 0 mm 5 mps 715 mmHg 42%
05:00 +23°C° 0 mm 5 mps 715 mmHg 44%
06:00 +23°C° 0 mm 5 mps 716 mmHg 47%
07:00 +25°C° 0 mm 5 mps 716 mmHg 44%
08:00 +26°C° 0 mm 6 mps 716 mmHg 41%
09:00 +28°C° 0 mm 6 mps 717 mmHg 38%
10:00 +29°C° 0 mm 5 mps 717 mmHg 34%
11:00 +32°C° 0 mm 5 mps 716 mmHg 31%
12:00 +34°C° 0 mm 4 mps 716 mmHg 27%
13:00 +35°C° 0 mm 3 mps 715 mmHg 26%
14:00 +36°C° 0 mm 3 mps 715 mmHg 25%
15:00 +37°C° 0 mm 2 mps 714 mmHg 23%
16:00 +37°C° 0 mm 2 mps 714 mmHg 23%
17:00 +37°C° 0 mm 2 mps 714 mmHg 22%
18:00 +37°C° 0 mm 2 mps 714 mmHg 22%
19:00 +35°C° 0 mm 3 mps 714 mmHg 24%
20:00 +34°C° 0 mm 4 mps 715 mmHg 26%
21:00 +33°C° 0 mm 5 mps 715 mmHg 28%
22:00 +32°C° 0 mm 6 mps 716 mmHg 29%
23:00 +30°C° 0 mm 7 mps 716 mmHg 30%

10 March, Wednesday

Time Temperature Precipitation Wind Pressure Humidity
00:00 +29°C° 0 mm 7 mps 716 mmHg 30%
01:00 +28°C° 0 mm 7 mps 716 mmHg 31%
02:00 +28°C° 0 mm 6 mps 716 mmHg 33%
03:00 +27°C° 0 mm 5 mps 716 mmHg 34%
04:00 +27°C° 0 mm 5 mps 716 mmHg 35%
05:00 +26°C° 0 mm 5 mps 716 mmHg 36%
06:00 +26°C° 0 mm 6 mps 716 mmHg 38%
07:00 +27°C° 0 mm 6 mps 717 mmHg 35%
08:00 +29°C° 0 mm 7 mps 717 mmHg 33%
09:00 +30°C° 0 mm 7 mps 717 mmHg 31%
10:00 +33°C° 0 mm 6 mps 717 mmHg 30%
11:00 +34°C° 0 mm 5 mps 717 mmHg 30%
12:00 +36°C° 0 mm 3 mps 717 mmHg 29%
13:00 +37°C° 0 mm 3 mps 716 mmHg 28%
14:00 +38°C° 0 mm 3 mps 715 mmHg 27%
15:00 +39°C° 0 mm 3 mps 715 mmHg 25%
16:00 +37°C° 0.7 mm 3 mps 714 mmHg 32%
17:00 +35°C° 0.7 mm 4 mps 714 mmHg 39%
18:00 +33°C° 0.7 mm 5 mps 714 mmHg 46%
19:00 +32°C° 0.6 mm 5 mps 715 mmHg 47%
20:00 +32°C° 0.6 mm 5 mps 715 mmHg 48%
21:00 +30°C° 0.6 mm 5 mps 716 mmHg 49%
22:00 +30°C° 0.1 mm 5 mps 716 mmHg 48%
23:00 +30°C° 0.1 mm 5 mps 716 mmHg 48%

11 March, Thursday

Time Temperature Precipitation Wind Pressure Humidity
00:00 +30°C° 0.1 mm 4 mps 717 mmHg 47%
01:00 +29°C° 0.3 mm 4 mps 716 mmHg 49%
02:00 +29°C° 0.3 mm 3 mps 716 mmHg 50%
03:00 +29°C° 0.3 mm 3 mps 716 mmHg 51%
04:00 +28°C° 0.1 mm 2 mps 717 mmHg 53%
05:00 +28°C° 0.1 mm 2 mps 717 mmHg 55%
06:00 +27°C° 0.1 mm 2 mps 717 mmHg 57%
07:00 +29°C° 0 mm 3 mps 717 mmHg 53%
08:00 +30°C° 0 mm 3 mps 718 mmHg 49%
09:00 +33°C° 0 mm 4 mps 718 mmHg 45%
10:00 +34°C° 0 mm 4 mps 718 mmHg 41%
11:00 +36°C° 0 mm 4 mps 718 mmHg 36%
12:00 +38°C° 0 mm 4 mps 717 mmHg 32%
13:00 +38°C° 0 mm 3 mps 717 mmHg 29%
14:00 +39°C° 0 mm 3 mps 716 mmHg 27%
15:00 +39°C° 0 mm 3 mps 716 mmHg 25%
16:00 +39°C° 0.1 mm 3 mps 716 mmHg 26%
17:00 +38°C° 0.1 mm 3 mps 716 mmHg 27%
18:00 +38°C° 0.1 mm 2 mps 716 mmHg 28%
19:00 +37°C° 0.1 mm 2 mps 716 mmHg 31%
20:00 +36°C° 0.1 mm 2 mps 717 mmHg 34%
21:00 +35°C° 0.1 mm 2 mps 717 mmHg 36%
22:00 +34°C° 0.1 mm 3 mps 717 mmHg 39%
23:00 +33°C° 0.1 mm 3 mps 717 mmHg 41%

12 March, Friday

Time Temperature Precipitation Wind Pressure Humidity
00:00 +31°C° 0.1 mm 3 mps 717 mmHg 43%
01:00 +31°C° 0.2 mm 3 mps 717 mmHg 45%
02:00 +30°C° 0.2 mm 2 mps 717 mmHg 47%
03:00 +29°C° 0.2 mm 2 mps 716 mmHg 48%
04:00 +29°C° 0.3 mm 2 mps 717 mmHg 48%
05:00 +29°C° 0.3 mm 2 mps 717 mmHg 48%
06:00 +28°C° 0.3 mm 2 mps 717 mmHg 48%
07:00 +30°C° 0.2 mm 2 mps 718 mmHg 43%
08:00 +31°C° 0.2 mm 3 mps 718 mmHg 38%
09:00 +33°C° 0.2 mm 3 mps 718 mmHg 33%
10:00 +35°C° 0 mm 2 mps 718 mmHg 31%
11:00 +36°C° 0 mm 2 mps 718 mmHg 30%
12:00 +37°C° 0 mm 2 mps 718 mmHg 29%
13:00 +37°C° 0 mm 1 mps 717 mmHg 27%
14:00 +39°C° 0 mm 1 mps 716 mmHg 25%
15:00 +39°C° 0 mm 1 mps 716 mmHg 23%
16:00 +39°C° 0 mm 1 mps 715 mmHg 23%
17:00 +39°C° 0 mm 1 mps 715 mmHg 22%
18:00 +39°C° 0 mm 1 mps 715 mmHg 22%
19:00 +37°C° 0.3 mm 1 mps 715 mmHg 26%
20:00 +36°C° 0.3 mm 2 mps 716 mmHg 29%
21:00 +35°C° 0.3 mm 2 mps 716 mmHg 33%
22:00 +35°C° 0 mm 2 mps 716 mmHg 34%
23:00 +34°C° 0 mm 2 mps 716 mmHg 34%
Show more

We Need Your Consent

Meteoprog and our Service Providers may store and access personal data such as cookies, device identifiers or other similar technologies on your device and process such data to personalise content and ads, as well as provide social media features and to analyse the traffic.

  • Store and/or access information on your device

    Cookies, device identifiers or other information can be stored or accessed on your device for the purposes indicated above.

  • Personalised ads and content, ad and content measurement, audience insights, and products development

    Ads and content can be personalised based on a profile. More data can be added to better personalise ads and content. Ad and content performance can be measured. Insights about the audience who saw the ads and content can be derived. Such data can be used to develop or improve user’s experience, systems and software.

By clicking ‘I Agree’ you will allow the use of indicated cookies, device identifiers, web beacons or other similar technologies. Your settings can be changed in the browser on your device.

For certain purposes, legitimate interests may be relied on, rather than consent. You can read more about this in our Privacy and Cookie Policy.